Date String (YYYY-MM-DD hh:mm:ss) UTC,Instrument flags,Ambient pressure (hPa),Sample flow (lpm),Bypass flow (lpm),Sample temperature (°C),Ambient temperature (°C),ASC tube jacket temperature (°C),LED temperature (°C),Box temperature (°C),Sample RH (%),Span deviation,Mass concentration (μg/m³),Mass concentration (μg/m³),Mass concentration (μg/m³)
DateTimeUTC,F1_M11,P_M11,Q1_M11,Q2_M11,T1_M11,T2_M11,T3_M11,T4_M11,T5_M11,U1_M11,ZSPAN_M11,X0_M11,X2_M11,X1_M11
2022-07-15 23:00:00,,0830.3,5.00,0.00,29.1,27.3,00.0,37.8,31.0,27.9,0000.0,0005.24,0003.01,0002.42
2022-07-15 23:01:00,,0830.3,4.99,0.00,29.1,27.5,00.0,37.8,31.0,28.8,0000.0,0005.10,0002.91,0002.34
2022-07-15 23:02:00,,0830.3,5.00,0.00,29.1,27.7,00.0,37.8,31.1,29.0,0000.0,0004.99,0002.90,0002.32
2022-07-15 23:03:00,,0830.3,4.99,0.00,29.2,27.8,00.0,37.9,31.1,28.9,0000.0,0005.69,0002.92,0002.30
2022-07-15 23:04:00,,0830.2,5.01,0.00,29.2,28.0,00.0,37.9,31.2,28.6,0000.0,0005.56,0002.88,0002.28
2022-07-15 23:05:00,,0830.2,5.00,0.00,29.2,28.2,00.0,37.9,31.3,28.6,0000.0,0005.62,0002.87,0002.27
2022-07-15 23:06:00,,0830.2,4.99,0.00,29.3,28.2,00.0,37.9,31.3,28.5,0000.0,0005.75,0002.91,0002.28
2022-07-15 23:07:00,,0830.2,5.01,0.00,29.3,27.7,00.0,37.9,31.3,28.4,0000.0,0006.04,0002.95,0002.29
2022-07-15 23:08:00,,0830.1,4.99,0.00,29.3,27.0,00.0,37.8,31.2,28.4,0000.0,0006.08,0002.96,0002.29
2022-07-15 23:09:00,,0830.1,5.01,0.00,29.2,26.8,00.0,37.8,31.1,28.6,0000.0,0006.66,0002.95,0002.30
2022-07-15 23:10:00,,0830.1,5.00,0.00,29.2,26.9,00.0,37.8,31.0,28.5,0000.0,0007.44,0002.98,0002.31
2022-07-15 23:11:00,,0830.1,5.00,0.00,29.1,27.0,00.0,37.8,30.9,28.4,0000.0,0007.36,0003.00,0002.34
2022-07-15 23:12:00,,0830.0,4.99,0.00,29.1,27.2,00.0,37.8,31.0,28.2,0000.0,0007.22,0003.05,0002.38
2022-07-15 23:13:00,,0829.9,5.01,0.00,29.1,27.4,00.0,37.8,31.0,28.4,0000.0,0007.00,0003.05,0002.41
2022-07-15 23:14:00,,0829.9,5.01,0.00,29.1,27.6,00.0,37.9,31.1,29.0,0000.0,0006.12,0003.00,0002.41
2022-07-15 23:15:00,,0829.8,5.00,0.00,29.2,27.8,00.0,37.9,31.1,28.6,0000.0,0006.01,0002.97,0002.43
2022-07-15 23:16:00,,0829.8,5.00,0.00,29.2,28.0,00.0,37.9,31.2,28.6,0000.0,0006.01,0002.99,0002.45
2022-07-15 23:17:00,,0829.8,5.00,0.00,29.2,28.1,00.0,37.9,31.2,29.1,0000.0,0005.86,0002.98,0002.47
2022-07-15 23:18:00,,0829.7,5.02,0.00,29.3,28.3,00.0,37.9,31.3,29.3,0000.0,0005.73,0002.97,0002.48
2022-07-15 23:19:00,,0829.7,5.00,0.00,29.3,28.0,00.0,37.9,31.3,29.2,0000.0,0005.70,0003.01,0002.52
2022-07-15 23:20:00,,0829.7,5.00,0.00,29.3,27.3,00.0,37.9,31.2,29.1,0000.0,0005.42,0003.04,0002.54
2022-07-15 23:21:00,,0829.6,4.99,0.00,29.3,26.9,00.0,37.8,31.1,29.2,0000.0,0004.32,0003.07,0002.56
2022-07-15 23:22:00,,0829.7,5.00,0.00,29.2,26.9,00.0,37.8,31.0,29.5,0000.0,0004.34,0003.10,0002.58
2022-07-15 23:23:00,,0829.7,5.00,0.00,29.1,27.0,00.0,37.8,30.9,29.2,0000.0,0004.28,0003.11,0002.59
2022-07-15 23:24:00,,0829.6,5.00,0.00,29.1,27.2,00.0,37.9,31.0,29.0,0000.0,0004.29,0003.12,0002.60
2022-07-15 23:25:00,,0829.6,5.00,0.00,29.1,27.4,00.0,37.9,31.0,29.0,0000.0,0004.34,0003.14,0002.63
2022-07-15 23:26:00,,0829.6,5.00,0.00,29.2,27.6,00.0,37.9,31.1,28.9,0000.0,0004.58,0003.18,0002.65
2022-07-15 23:27:00,,0829.7,4.99,0.00,29.2,27.8,00.0,37.9,31.1,29.3,0000.0,0004.57,0003.18,0002.65
2022-07-15 23:28:00,,0829.6,5.00,0.00,29.2,28.0,00.0,37.9,31.2,29.5,0000.0,0004.61,0003.19,0002.66
2022-07-15 23:29:00,,0829.5,5.00,0.00,29.3,28.1,00.0,37.9,31.3,29.3,0000.0,0004.55,0003.19,0002.67
2022-07-15 23:30:00,,0829.6,5.00,0.00,29.3,28.3,00.0,38.0,31.3,28.3,0000.0,0004.59,0003.20,0002.67
2022-07-15 23:31:00,,0829.6,5.00,0.00,29.3,28.1,00.0,38.0,31.4,28.0,0000.0,0004.74,0003.22,0002.68
2022-07-15 23:32:00,,0829.6,5.01,0.00,29.3,27.4,00.0,37.9,31.3,28.5,0000.0,0004.87,0003.26,0002.70
2022-07-15 23:33:00,,0829.5,5.00,0.00,29.3,26.9,00.0,37.9,31.2,28.7,0000.0,0004.90,0003.27,0002.72
2022-07-15 23:34:00,,0829.5,4.99,0.00,29.3,26.9,00.0,37.9,31.1,28.9,0000.0,0004.99,0003.28,0002.72
2022-07-15 23:35:00,,0829.6,5.00,0.00,29.2,27.0,00.0,37.9,31.0,28.7,0000.0,0005.91,0003.31,0002.74
2022-07-15 23:36:00,,0829.6,5.00,0.00,29.2,27.2,00.0,37.9,31.0,28.5,0000.0,0005.97,0003.32,0002.73
2022-07-15 23:37:00,,0829.6,5.01,0.00,29.2,27.4,00.0,37.9,31.0,28.6,0000.0,0005.88,0003.31,0002.74
2022-07-15 23:38:00,,0829.7,4.99,0.00,29.2,27.6,00.0,37.9,31.1,28.9,0000.0,0005.92,0003.31,0002.75
2022-07-15 23:39:00,,0829.6,5.01,0.00,29.2,27.8,00.0,37.9,31.2,29.1,0000.0,0006.02,0003.32,0002.76
2022-07-15 23:40:00,,0829.5,5.01,0.00,29.3,28.0,00.0,37.9,31.2,29.0,0000.0,0006.10,0003.33,0002.76
2022-07-15 23:41:00,,0829.6,5.01,0.00,29.3,28.1,00.0,38.0,31.3,28.2,0000.0,0006.21,0003.33,0002.75
2022-07-15 23:42:00,,0829.6,5.00,0.00,29.3,28.3,00.0,38.0,31.3,28.3,0000.0,0006.50,0003.32,0002.75
2022-07-15 23:43:00,,0829.5,4.99,0.00,29.4,28.0,00.0,38.0,31.4,28.5,0000.0,0006.35,0003.30,0002.76
2022-07-15 23:44:00,,0829.5,5.00,0.00,29.4,27.2,00.0,37.9,31.3,28.8,0000.0,0007.02,0003.30,0002.76
2022-07-15 23:45:00,,0829.6,5.01,0.00,29.3,26.9,00.0,37.9,31.2,28.8,0000.0,0007.06,0003.29,0002.75
2022-07-15 23:46:00,,0829.5,5.00,0.00,29.3,26.9,00.0,37.9,31.1,28.6,0000.0,0006.51,0003.29,0002.76
2022-07-15 23:47:00,,0829.5,5.00,0.00,29.2,27.1,00.0,37.9,31.0,28.6,0000.0,0006.31,0003.30,0002.76
2022-07-15 23:48:00,,0829.5,5.00,0.00,29.2,27.3,00.0,37.9,31.0,28.6,0000.0,0007.04,0003.30,0002.75
2022-07-15 23:49:00,,0829.5,4.99,0.00,29.2,27.5,00.0,37.9,31.1,28.4,0000.0,0007.42,0003.28,0002.74
2022-07-15 23:50:00,,0829.5,5.01,0.00,29.2,27.7,00.0,37.9,31.1,28.6,0000.0,0007.37,0003.26,0002.72
2022-07-15 23:51:00,,0829.5,4.99,0.00,29.3,27.9,00.0,38.0,31.2,28.7,0000.0,0008.00,0003.24,0002.72
2022-07-15 23:52:00,,0829.6,5.01,0.00,29.3,28.0,00.0,38.0,31.3,28.7,0000.0,0008.21,0003.22,0002.73
2022-07-15 23:53:00,,0829.5,4.99,0.00,29.3,28.2,00.0,38.0,31.3,28.1,0000.0,0008.44,0003.25,0002.74
2022-07-15 23:54:00,,0829.5,4.99,0.00,29.4,28.3,00.0,38.0,31.4,28.3,0000.0,0008.87,0003.30,0002.74
2022-07-15 23:55:00,,0829.6,5.01,0.00,29.4,27.8,00.0,38.0,31.4,28.4,0000.0,0008.57,0003.28,0002.75
2022-07-15 23:56:00,,0829.5,4.99,0.00,29.4,27.1,00.0,37.9,31.3,28.5,0000.0,0008.54,0003.30,0002.76
2022-07-15 23:57:00,,0829.5,5.00,0.00,29.3,26.9,00.0,37.9,31.2,28.3,0000.0,0009.30,0003.30,0002.76
2022-07-15 23:58:00,,0829.5,5.01,0.00,29.3,27.0,00.0,37.9,31.0,28.3,0000.0,0009.25,0003.28,0002.76
2022-07-15 23:59:00,,0829.5,5.00,0.00,29.2,27.1,00.0,37.9,31.0,28.1,0000.0,0008.91,0003.27,0002.75
